Location: Rockford
(42.2710°N, 89.0940°W)
Time: 14:45:43
(UTC-05:00)

SPOT 5 - Visible Passes

Search period start: 28 July 2015 00:00
Search period end: 07 August 2015 00:00
Orbit: 821 x 823 km, 98.5° (Epoch: 28 July)

Date Brightness Start Highest point End Pass type
(mag) Time Alt. Az. Time Alt. Az. Time Alt. Az.
28 Jul 3.2 21:16:18 10° SSE 21:21:36 68° ENE 21:26:58 10° N visible
28 Jul 5.5 22:59:05 10° SW 23:02:22 16° W 23:05:25 10° NW visible
29 Jul 3.6 20:56:31 10° SE 21:01:33 45° ENE 21:06:40 10° N visible
29 Jul 5.0 22:37:39 10° SSW 22:41:58 24° W 22:46:12 10° NW visible
30 Jul 4.4 22:16:45 10° SSW 22:21:39 36° W 22:26:33 10° NNW visible
31 Jul 3.7 21:56:21 11° S 22:01:24 54° W 22:06:41 10° NNW visible
01 Aug 3.2 21:36:02 11° SSE 21:41:14 82° WSW 21:46:39 10° NNW visible
02 Aug 3.2 21:15:50 10° SSE 21:21:07 68° ENE 21:26:29 10° N visible
02 Aug 5.5 22:58:37 10° SW 23:01:53 16° W 23:04:57 10° NW visible
03 Aug 3.6 20:56:01 10° SE 21:01:04 45° ENE 21:06:11 10° N visible
03 Aug 5.0 22:37:10 10° SSW 22:41:29 24° W 22:45:43 10° NW visible
04 Aug 4.1 20:36:28 10° SE 20:41:04 31° ENE 20:45:46 10° N visible
04 Aug 4.4 22:16:30 11° SSW 22:21:10 36° W 22:26:04 10° NNW visible
05 Aug 3.7 21:56:12 13° S 22:00:55 54° W 22:06:11 10° NNW visible
06 Aug 3.2 21:35:53 13° S 21:40:45 82° WSW 21:46:10 10° NNW visible
